Skip Page Navigation
NASA JPL Caltech
NASA Logo - Jet Propulsion Laboratory + View the NASA Portal
+ Center for Near-Earth Object Studies
JPL Home Earth Solar System Stars & Galaxies Technology
JPL Solar System Dynamics
BODIES ORBITS EPHEMERIDES TOOLS PHYSICAL DATA DISCOVERY FAQ SITE MAP
IMPORTANT: The SSD Announcement email list is now available. Major changes are coming in the near future, including possible hostname and/or URL changes. To be notified of such changes, subscribe to this email list.

Please visit this page for more details.


JPL Small-Body Database Browser
Search: [ help ]  
65147 (2002 CN116)
Classification: Main-belt Asteroid          SPK-ID: 2065147
Ephemeris | Orbit Diagram | Orbital Elements | Mission Design | Physical Parameters | Discovery Circumstances | Close-Approach Data ]

[ show orbit diagram ]
Orbital Elements at Epoch 2458600.5 (2019-Apr-27.0) TDB
Reference: JPL 19 (heliocentric ecliptic J2000)
 Element Value Uncertainty (1-sigma)   Units 
e .04917907899466068 5.1184e-08  
a 3.064884003230732 2.3055e-08 au
q 2.914155830726376 1.5758e-07 au
i 11.0048644380538 5.237e-06 deg
node 86.16258202594601 2.5981e-05 deg
peri 142.4135981543102 5.7642e-05 deg
M 4.694104166630368 4.9167e-05 deg
tp 2458574.945363220840
(2019-Apr-01.44536322)
0.00026777 TDB
period 1959.834915018847
5.37
2.2114e-05
6.054e-08
d
yr
n .1836889409619167 2.0727e-09 deg/d
Q 3.215612175735088 2.4189e-08 au
  Orbit Determination Parameters
   # obs. used (total)      815  
   data-arc span      12197 days (33.39 yr)  
   first obs. used      1986-03-04  
   last obs. used      2019-07-26  
   planetary ephem.      DE431  
   SB-pert. ephem.      SB431-N16  
   condition code      0  
   norm. resid. RMS      .5537  
   source      ORB  
   producer      Otto Matic  
   solution date      2019-Nov-07 07:38:27  

Additional Information
 Earth MOID = 1.90984 au 
 Jupiter MOID = 1.82653 au 
 T_jup = 3.203 
[ show covariance matrix ]

Ephemeris | Orbit Diagram | Orbital Elements | Mission Design | Physical Parameters | Discovery Circumstances | Close-Approach Data ]

Physical Parameter Table
Parameter Symbol Value Units Sigma Reference Notes
absolute magnitude H 14.4   n/a MPO436236  
diameter diameter 4.333 km 1.609 urn:nasa:pds:neowise_diameters_albedos::2.0[mainbelt] (http://adsabs.harvard.edu/abs/2011ApJ...741...68M)  
geometric albedo albedo 0.149   0.086 urn:nasa:pds:neowise_diameters_albedos::2.0[mainbelt] (http://adsabs.harvard.edu/abs/2011ApJ...741...68M)  

65147 (2002 CN116)          Discovered 2002-Feb-15 by Elst, E. W., Debehogne, H. at Uccle
Reference: 20030614/Numbers.arcLast Updated: 2004-04-19

[ show close-approach data ]
Ephemeris | Orbit Diagram | Orbital Elements | Mission Design | Physical Parameters | Discovery Circumstances | Close-Approach Data ]
ABOUT SSD CREDITS/AWARDS PRIVACY/COPYRIGHT GLOSSARY LINKS
FirstGov 2020-Jan-22 20:36 UT
(server date/time)  
NASA Home Page
Site Manager:   Ryan S. Park
Webmaster  Alan B. Chamberlin